[[{"header":{"parameterUnit":"m.s-1","parameterCategory":1,"la1":30.2991,"la2":30.254,"lo1":-89.0895,"lo2":-89.0444,"dy":0.0017,"dx":0.0017,"nx":28,"ny":28,"refTime":"2024-10-12T03:00:00:Z","depth":0,"parameterNumber":2,"parameterNumberName":"U-component_of_WINDS"},"data":[0,0,0,0,0,0,0,0,0,0,0,0,0,0,0,0,0,0,0,0,0,0,0,0,0,0,0,0,0,0,0,0,0,0,0,0,0,0,0,0,0,0,0,0,0,0,0,0,0,0,0,0,0,0,0,0,0,0,1.2944,1.2945,0,1.3037,1.3038,1.3039,1.3068,1.3067,1.3067,1.3067,1.3159,1.3162,1.3165,0,0,0,0,0,0,0,0,0,0,0,0,0,1.2788,1.2791,1.2944,1.2945,1.2946,1.3036,1.3038,1.3039,1.3068,1.3067,1.3067,1.3066,1.3158,1.3161,1.3165,0,0,0,0,0,0,0,0,0,0,0,0,0,1.2866,1.2792,1.2943,1.2971,1.2975,1.3036,1.3038,1.3039,1.3068,1.3067,1.3067,1.3066,1.3157,1.3161,1.3165,1.3205,0,0,1.3178,1.318,0,0,0,0,0,0,0,0,1.2861,1.2871,1.2966,1.297,1.2974,1.304,1.3017,1.3095,1.3068,1.3033,1.3067,1.3066,1.312,1.3127,1.3146,1.3209,1.3213,1.3179,1.3181,1.3183,1.3184,0,0,0,0,0,0,0,1.2856,1.2867,1.298,1.2968,1.2972,1.2978,1.2989,1.3032,1.3079,1.3036,1.3038,1.3049,1.3122,1.3142,1.3148,1.3214,1.3179,1.3182,1.3185,1.3187,1.3313,1.3313,0,0,0,0,0,0,1.2846,1.2863,1.2977,1.2983,1.2915,1.2982,1.2993,1.3019,1.3078,1.3087,1.3049,1.305,1.3135,1.3143,1.3151,1.32,1.3183,1.3187,1.319,1.3312,1.3313,1.3314,0,0,0,0,0,0,1.2843,1.2856,1.2974,1.2924,1.2939,1.2985,1.3014,1.3021,1.3042,1.3088,1.3097,1.3061,1.3134,1.3145,1.3191,1.3204,1.3189,1.3193,1.3311,1.3312,1.3313,1.3299,0,0,0,0,0,0,1.2838,1.2855,1.2871,1.2924,1.2942,1.3013,1.3015,1.3024,1.3049,1.3051,1.3102,1.311,1.3135,1.3184,1.3195,1.321,1.3196,1.331,1.3311,1.3313,1.3298,1.3299,1.33,0,0,0,0,0,1.2832,1.2863,1.2872,1.2885,1.2963,1.3013,1.3023,1.3052,1.305,1.3066,1.3096,1.3108,1.3201,1.3189,1.3201,1.3217,1.3309,1.3311,1.3313,1.3298,1.3299,1.33,0,0,0,0,0,0,1.2809,1.287,1.2881,1.2929,1.2966,1.3018,1.3039,1.3053,1.309,1.309,1.3124,1.3135,1.3178,1.3202,1.3188,1.3257,1.3255,1.326,1.324,1.3241,1.3242,1.3235,1.32,0,0,0,0,0,1.281,1.2847,1.2898,1.2936,1.2954,1.2993,1.3016,1.3035,1.3074,1.309,1.3123,1.3159,1.3197,1.3221,1.3258,1.3302,1.3313,1.3319,1.332,1.332,1.3323,1.3347,1.335,1.3319,1.3319,1.3319,0,0,1.2812,1.285,1.2871,1.2932,1.2963,1.2999,1.3006,1.3044,1.3071,1.3095,1.314,1.3166,1.3208,1.3253,1.3275,1.3275,1.3334,1.3323,1.3323,1.3326,1.3349,1.3352,1.3355,1.332,1.332,1.332,0,0,1.2833,1.2866,1.2901,1.2931,1.2978,1.3004,1.3012,1.3062,1.308,1.3126,1.3145,1.3176,1.324,1.327,1.3293,1.3324,1.3336,1.3335,1.334,1.3363,1.3365,1.3368,1.3378,1.3381,1.3338,1.3338,1.3338,0,1.2829,1.2885,1.2916,1.2954,1.2979,1.3004,1.3038,1.3066,1.3122,1.3138,1.3138,1.3218,1.3249,1.33,1.3308,1.3326,1.3336,1.3329,1.3363,1.3365,1.3368,1.3378,1.3382,1.3338,1.3338,1.3338,1.3338,0,1.2877,1.2915,1.2937,1.2991,1.302,1.3055,1.3091,1.3116,1.3132,1.3158,1.3203,1.3241,1.3285,1.3299,1.3315,1.3352,1.3351,1.3356,1.3355,1.337,1.338,1.3384,1.3337,1.3337,1.3337,1.3338,0,0,1.2886,1.2957,1.2964,1.2988,1.3041,1.3071,1.3107,1.3151,1.3171,1.3209,1.3239,1.3292,1.3297,1.3323,1.3343,1.3363,1.3384,1.3366,1.3367,1.3367,1.3426,1.3421,1.3425,1.3393,1.3393,1.3394,1.3422,0,1.2913,1.298,1.3008,1.3061,1.3096,1.312,1.3151,1.3186,1.3211,1.3243,1.327,1.3307,1.3311,1.3327,1.3348,1.3377,1.3396,1.3376,1.342,1.3421,1.3408,1.343,1.3426,1.345,1.3426,1.3427,1.3427,0,1.2953,1.2992,1.3048,1.3096,1.3112,1.3139,1.3182,1.3213,1.3252,1.3269,1.3298,1.3317,1.3354,1.335,1.3401,1.3387,1.3406,1.3423,1.3425,1.3429,1.3424,1.3435,1.3459,1.3462,1.3434,1.3433,1.3433,0,1.2953,1.3018,1.3061,1.3081,1.3138,1.3156,1.3181,1.322,1.3244,1.3281,1.3297,1.3337,1.3359,1.3389,1.3418,1.3413,1.3465,1.3464,1.3479,1.3478,1.3489,1.3487,1.3515,1.3503,1.3502,1.3502,1.3502,0,1.298,1.3013,1.3061,1.3087,1.3124,1.3157,1.3193,1.3218,1.3253,1.3283,1.3306,1.3333,1.337,1.3401,1.3424,1.3462,1.3472,1.3485,1.3491,1.3483,1.3481,1.3496,1.3494,1.3503,1.3503,1.3503,1.3503,0,1.2985,1.3019,1.3066,1.3117,1.313,1.3155,1.3198,1.3223,1.3248,1.3286,1.3297,1.3337,1.3375,1.3407,1.3457,1.3472,1.3512,1.3519,1.3499,1.3501,1.3514,1.3512,1.3551,1.3558,1.3541,1.3541,1.3541,0,1.3,1.3026,1.3079,1.3101,1.3126,1.3161,1.3187,1.3219,1.3244,1.3291,1.331,1.335,1.3384,1.3445,1.3477,1.3516,1.3523,1.3534,1.3529,1.352,1.3522,1.352,1.3522,1.3534,1.3534,1.3534,1.3534,0,1.3021,1.3037,1.3073,1.3114,1.3144,1.3178,1.3213,1.3229,1.3268,1.3294,1.3335,1.3361,1.3413,1.3452,1.3494,1.3517,1.3532,1.3536,1.3541,1.3533,1.352,1.3526,1.3499,1.3535,1.3535,1.3535,1.3535,1.3535,1.3031,1.3055,1.3096,1.3135,1.3165,1.3197,1.3223,1.3252,1.3286,1.3331,1.3348,1.3389,1.3426,1.3484,1.3508,1.354,1.3541,1.3549,1.3551,1.3552,1.3551,1.3516,1.3547,1.3547,1.3548,1.3548,1.3548,0,1.3053,1.3081,1.3116,1.3164,1.3195,1.3207,1.3245,1.327,1.3306,1.334,1.3373,1.3419,1.3457,1.3492,1.3532,1.355,1.3558,1.3559,1.3558,1.3563,1.3547,1.3539,1.3553,1.3553,1.3553,1.3553,1.3553,1.3552,1.3068,1.3109,1.3129,1.3185,1.3212,1.3253,1.3273,1.3302,1.333,1.338,1.3412,1.3436,1.347,1.3512,1.3547,1.3557,1.357,1.357,1.358,1.3565,1.3564,1.3563,1.3555,1.3572,1.3572,1.3594,1.3594,1.3594]},{"header":{"parameterUnit":"m.s-1","parameterCategory":1,"la1":30.2991,"la2":30.254,"lo1":-89.0895,"lo2":-89.0444,"dy":0.0017,"dx":0.0017,"nx":28,"ny":28,"refTime":"2024-10-12T03:00:00:Z","depth":0,"parameterNumber":3,"parameterNumberName":"V-component_of_WINDS"},"data":[0,0,0,0,0,0,0,0,0,0,0,0,0,0,0,0,0,0,0,0,0,0,0,0,0,0,0,0,0,0,0,0,0,0,0,0,0,0,0,0,0,0,0,0,0,0,0,0,0,0,0,0,0,0,0,0,0,0,3.4445,3.4444,0,3.4389,3.4389,3.4388,3.4341,3.4341,3.434,3.434,3.4279,3.4278,3.4277,0,0,0,0,0,0,0,0,0,0,0,0,0,3.4507,3.4506,3.4445,3.4444,3.4443,3.4389,3.4388,3.4388,3.4342,3.4341,3.434,3.434,3.428,3.4278,3.4277,0,0,0,0,0,0,0,0,0,0,0,0,0,3.4469,3.4506,3.4445,3.4414,3.4411,3.4389,3.4388,3.4388,3.4342,3.4341,3.434,3.434,3.428,3.4278,3.4277,3.428,0,0,3.4271,3.4271,0,0,0,0,0,0,0,0,3.4471,3.4466,3.4419,3.4416,3.4412,3.4372,3.4388,3.4351,3.4342,3.4368,3.434,3.4339,3.431,3.4306,3.4297,3.4278,3.4275,3.4271,3.427,3.4269,3.4269,0,0,0,0,0,0,0,3.4474,3.4468,3.4423,3.4419,3.4414,3.4402,3.4395,3.4381,3.4344,3.4365,3.4362,3.4356,3.4308,3.4299,3.4295,3.4274,3.4271,3.427,3.4269,3.4268,3.4253,3.4254,0,0,0,0,0,0,3.4482,3.4471,3.4424,3.4421,3.444,3.4401,3.4394,3.4385,3.4344,3.4337,3.4357,3.4354,3.4302,3.4297,3.4293,3.4293,3.4269,3.4268,3.4267,3.4252,3.4253,3.4254,0,0,0,0,0,0,3.4483,3.4478,3.4427,3.4445,3.4438,3.4401,3.4391,3.4385,3.4375,3.4337,3.433,3.4354,3.4301,3.4295,3.4284,3.4291,3.4267,3.4265,3.4252,3.4253,3.4254,3.4295,0,0,0,0,0,0,3.4485,3.4479,3.4481,3.4446,3.4437,3.442,3.4392,3.4384,3.4373,3.4369,3.4333,3.4326,3.43,3.4287,3.4282,3.4288,3.4264,3.4251,3.4252,3.4253,3.4293,3.4297,3.4301,0,0,0,0,0,3.4487,3.4494,3.4481,3.4476,3.4439,3.442,3.4415,3.4386,3.4374,3.4374,3.435,3.4327,3.4291,3.4286,3.428,3.4286,3.425,3.4252,3.4253,3.4291,3.4297,3.4301,0,0,0,0,0,0,3.453,3.4489,3.4474,3.447,3.4449,3.4413,3.4413,3.4393,3.4375,3.4372,3.4335,3.4328,3.4319,3.4301,3.4296,3.4286,3.4267,3.4268,3.4298,3.4303,3.4307,3.4311,3.4262,0,0,0,0,0,3.4539,3.4529,3.4493,3.4493,3.4483,3.445,3.4441,3.4421,3.4397,3.4388,3.4362,3.4339,3.4322,3.4312,3.4294,3.4291,3.4281,3.4291,3.4295,3.4299,3.4299,3.4294,3.4298,3.4259,3.4259,3.4259,0,0,3.4557,3.4534,3.4529,3.4501,3.4482,3.4471,3.4443,3.4432,3.4423,3.4386,3.4373,3.4354,3.4325,3.4317,3.4313,3.4302,3.4308,3.4301,3.4304,3.4302,3.4296,3.43,3.4303,3.426,3.426,3.4259,0,0,3.4584,3.4566,3.4563,3.4546,3.4519,3.4496,3.4496,3.4462,3.4448,3.4436,3.4407,3.4395,3.4367,3.4347,3.4334,3.4354,3.4331,3.4349,3.437,3.4365,3.4368,3.4371,3.4376,3.4379,3.435,3.435,3.435,0,3.461,3.4593,3.4564,3.4555,3.4543,3.451,3.4506,3.4489,3.4457,3.4449,3.4438,3.4402,3.438,3.4367,3.4371,3.4362,3.4359,3.4352,3.4371,3.4373,3.4375,3.4379,3.4382,3.4352,3.4352,3.4351,3.4351,0,3.4625,3.4614,3.4615,3.4586,3.4573,3.4567,3.4536,3.4526,3.4507,3.4486,3.4472,3.4446,3.4422,3.4417,3.4398,3.44,3.4394,3.4378,3.4358,3.4381,3.4385,3.4386,3.4355,3.4354,3.4354,3.4353,0,0,3.4677,3.4632,3.4633,3.4619,3.4586,3.4576,3.4568,3.4545,3.4537,3.4516,3.4507,3.4484,3.4468,3.4453,3.4431,3.4428,3.4443,3.4411,3.441,3.4417,3.4442,3.4453,3.4456,3.4429,3.4429,3.4429,3.4444,0,3.4697,3.4681,3.4655,3.4647,3.4635,3.4604,3.4596,3.4574,3.4554,3.454,3.4517,3.4501,3.4482,3.4472,3.4468,3.4442,3.4447,3.4441,3.4418,3.4417,3.4424,3.4458,3.4471,3.4486,3.4445,3.4445,3.4445,0,3.4719,3.4701,3.4692,3.466,3.4654,3.4648,3.4625,3.4612,3.4586,3.4572,3.4555,3.4532,3.4519,3.4502,3.4483,3.448,3.4469,3.4455,3.4455,3.445,3.4432,3.4453,3.449,3.4492,3.4448,3.4447,3.4447,0,3.4756,3.4729,3.472,3.4709,3.4672,3.4668,3.4652,3.4626,3.4614,3.4593,3.4584,3.4562,3.455,3.4532,3.4503,3.4494,3.4486,3.4468,3.4472,3.4473,3.4471,3.4471,3.4505,3.4467,3.4467,3.4467,3.4467,0,3.478,3.4776,3.4736,3.473,3.4723,3.4693,3.4686,3.4667,3.4644,3.4633,3.4604,3.4594,3.4556,3.4541,3.4518,3.4505,3.45,3.4486,3.448,3.4488,3.4489,3.4479,3.4476,3.4467,3.4467,3.4467,3.4467,0,3.4819,3.4793,3.478,3.4746,3.4738,3.4734,3.4704,3.4696,3.4675,3.4661,3.4656,3.4621,3.4602,3.4571,3.4542,3.4526,3.4517,3.4507,3.4526,3.4522,3.4528,3.4527,3.4555,3.4556,3.4519,3.4519,3.4519,0,3.4836,3.4832,3.4798,3.4789,3.4774,3.476,3.4748,3.4717,3.4706,3.4676,3.4671,3.465,3.4631,3.4601,3.4573,3.455,3.4538,3.455,3.4535,3.4543,3.4537,3.4537,3.4535,3.4553,3.4553,3.4554,3.4554,0,3.4869,3.4856,3.484,3.482,3.4806,3.4788,3.4769,3.4763,3.4727,3.4715,3.4696,3.4681,3.4652,3.4631,3.4604,3.4586,3.4563,3.4559,3.4559,3.4567,3.4577,3.457,3.4534,3.4559,3.4558,3.4558,3.4558,3.4557,3.4896,3.489,3.4865,3.4848,3.4831,3.4813,3.4804,3.4782,3.4766,3.4741,3.4723,3.4704,3.4677,3.464,3.4622,3.4606,3.4596,3.4596,3.4596,3.4596,3.4598,3.4581,3.4601,3.4601,3.4601,3.4601,3.4601,0,3.4925,3.4908,3.4893,3.4867,3.4853,3.4836,3.4813,3.4802,3.4787,3.4764,3.4747,3.4724,3.4703,3.4672,3.4649,3.4641,3.463,3.4636,3.4635,3.4631,3.4609,3.4611,3.4645,3.4645,3.4645,3.4645,3.4645,3.4645,3.4939,3.4928,3.4912,3.4892,3.4874,3.4857,3.4845,3.4828,3.481,3.4786,3.4769,3.475,3.4724,3.4698,3.4677,3.4668,3.466,3.4669,3.4657,3.4637,3.4632,3.4629,3.463,3.4667,3.4668,3.468,3.468,3.468]}]]